Theta_e
292 293 293 293 294 295 295 296 298 299 300 303 307 310 312 317 319 320 321 320 320 320 319 320 319 317 317 317 317 317 317 316 308 297 296 293 289 289 289 289 288 288 288
292 293 293 293 294 294 295 296 298 299 300 303 307 311 313 316 318 319 319 318 317 315 313 313 312 313 312 311 312 313 312 312 309 297 293 290 288 288 288 288 287 287 288
292 293 293 293 294 294 294 296 297 299 301 303 306 309 311 313 313 315 316 315 312 311 311 310 309 309 310 309 308 307 306 307 307 303 289 288 287 287 287 288 287 287 287
292 292 292 293 293 293 294 296 297 298 300 302 304 305 307 309 311 311 311 310 309 307 307 308 308 308 306 303 301 297 296 297 297 291 288 287 287 287 286 287 287 286 287
291 292 292 292 293 293 294 295 296 297 299 300 302 303 304 306 307 307 308 307 307 306 305 306 304 302 299 297 294 292 292 292 291 290 287 286 285 285 285 285 286 287 285
290 291 291 292 293 293 294 295 297 297 297 299 300 302 303 302 304 306 307 307 305 304 302 299 297 295 293 292 292 291 291 291 289 288 286 285 284 284 285 286 286 285 286
290 291 291 291 291 292 293 295 296 297 297 298 298 299 300 302 302 304 305 303 300 298 295 293 292 291 291 291 290 290 290 290 289 288 286 285 285 285 285 285 285 284 283
290 291 292 291 291 291 292 293 294 295 296 297 297 297 298 297 297 298 298 297 294 293 291 291 290 289 289 290 289 288 287 287 287 287 287 285 285 284 284 285 285 285 284
289 289 290 292 291 291 291 291 292 292 292 293 293 293 293 292 293 294 295 293 292 290 289 289 290 289 288 288 289 288 286 284 283 284 284 285 285 285 285 285 285 285 284
288 289 288 289 289 291 291 291 291 290 290 290 290 290 291 291 290 291 291 291 290 289 288 288 287 288 287 288 289 288 286 284 284 284 284 285 285 285 286 287 285 285 284
288 289 288 287 288 289 291 290 290 290 290 289 289 289 289 289 289 289 289 290 290 289 288 288 288 287 287 287 288 287 287 285 283 284 284 284 284 284 285 285 285 286 286
288 288 288 288 287 286 288 290 290 289 289 289 288 288 288 289 288 288 288 288 289 289 288 288 287 286 287 287 287 287 287 286 284 284 283 283 283 283 283 283 284 285 286
289 289 288 287 287 286 286 287 288 289 288 288 288 287 287 287 287 287 287 287 287 287 287 287 284 285 284 285 285 285 286 285 285 284 284 283 283 283 282 282 283 284 284
290 289 288 288 287 287 286 286 286 287 287 287 287 286 287 287 287 287 287 287 287 286 286 284 283 283 283 283 283 282 285 285 285 285 284 283 282 282 282 282 281 282 283
290 289 288 288 287 287 287 287 286 286 286 287 288 287 287 287 288 288 287 287 286 286 285 283 283 283 283 282 282 283 283 283 284 284 284 283 283 283 282 282 281 281 282
290 289 289 288 288 288 287 287 287 287 286 285 285 285 286 286 286 286 286 285 285 285 284 283 283 283 283 283 283 283 283 282 282 282 283 283 284 283 283 282 282 281 281
291 290 289 289 288 287 287 287 286 286 286 286 286 284 284 285 285 285 285 285 284 283 284 284 285 284 284 284 283 283 284 284 283 283 282 282 282 282 282 282 282 282 281
292 290 289 289 288 288 288 287 286 287 286 286 286 286 286 285 284 284 284 283 283 283 281 283 284 285 285 284 284 284 284 283 283 282 282 281 281 282 282 282 282 283 282
293 291 290 289 288 288 288 287 286 285 285 286 287 286 286 285 284 284 283 284 283 282 282 282 284 285 285 284 284 284 284 283 283 283 282 281 281 280 281 282 282 282 282
292 291 290 289 287 286 286 285 285 285 284 284 286 287 286 285 284 284 284 284 283 283 283 284 284 285 286 285 285 284 284 283 282 282 282 282 281 281 281 281 281 281 281
292 290 289 287 286 285 285 284 284 284 284 284 287 288 288 285 285 284 284 284 284 284 283 284 285 285 285 285 285 284 284 283 283 282 282 282 281 280 281 281 280 281 280
291 290 288 286 285 284 284 284 283 283 283 283 284 286 285 285 285 285 285 285 285 285 285 285 286 286 286 285 285 284 284 284 283 283 282 282 281 281 280 280 280 279 279
290 289 288 287 286 285 284 284 284 284 283 284 284 284 284 283 284 285 286 286 285 285 285 285 285 285 285 285 285 285 284 285 285 284 283 283 282 281 281 280 280 279 279
289 289 288 287 286 285 284 284 284 284 284 284 284 284 284 285 284 285 286 288 289 285 283 284 285 285 285 285 285 285 285 285 284 284 283 283 282 282 281 280 280 280 280
288 288 287 286 285 285 284 284 284 284 284 284 284 284 284 284 284 284 284 286 288 287 285 285 284 286 285 285 284 285 284 284 284 283 283 282 282 282 281 281 280 279 279
287 287 286 286 285 285 285 284 284 284 284 284 284 284 284 284 284 285 285 285 285 285 285 284 283 284 285 285 285 284 284 284 282 282 282 281 281 281 281 280 280 279 279
Wind_Speed
11 10 10 10 8 7 5 5 4 5 5 3 1 2 3 3 7 8 9 8 8 8 8 7 7 6 5 7 8 10 11 8 7 4 7 4 6 7 9 9 12 13 14
11 11 11 10 9 8 7 5 4 1 2 2 1 2 3 6 9 11 11 10 8 8 9 9 8 8 7 6 8 9 5 7 7 10 7 5 6 7 9 9 16 15 15
8 9 9 10 9 8 7 6 5 3 3 4 4 6 8 9 12 13 12 11 12 12 11 10 11 8 7 5 5 7 5 6 5 11 9 8 6 8 7 9 16 17 16
7 7 7 8 8 8 8 8 7 6 6 8 8 9 11 12 13 13 14 15 14 14 14 13 10 8 7 7 8 9 9 11 13 16 15 11 6 6 10 7 8 17 18
3 4 5 6 7 7 9 9 9 8 10 10 11 12 12 13 14 15 15 15 16 16 14 11 10 9 9 9 9 11 11 14 14 14 11 12 9 9 7 8 5 7 17
1 3 5 7 7 9 9 9 12 11 11 11 13 13 14 14 12 14 15 15 15 15 16 15 13 11 11 12 14 14 13 13 14 13 12 11 10 9 10 10 9 3 3
2 3 4 6 7 8 8 9 12 12 10 12 14 13 15 14 12 13 13 16 17 17 16 16 17 15 14 14 14 12 13 11 12 14 17 13 11 9 8 7 11 13 8
3 2 2 3 4 6 7 10 10 10 10 11 12 12 13 13 10 10 13 16 18 17 16 15 15 16 14 15 17 19 19 19 18 18 18 15 12 9 7 7 9 12 10
4 3 3 3 3 4 5 7 8 8 9 10 11 11 12 13 11 11 12 15 16 15 14 14 13 14 14 14 15 18 18 18 16 16 16 14 14 11 10 9 8 7 3
6 4 2 3 5 6 5 5 6 7 8 9 11 11 10 11 9 10 11 14 16 16 14 12 11 12 13 12 12 15 18 15 14 13 14 14 13 12 12 12 12 7 5
7 7 5 4 5 6 6 6 7 7 6 7 7 9 9 9 9 9 9 10 12 15 14 14 13 11 11 12 11 10 12 14 12 12 12 12 11 12 13 14 14 12 14
9 9 8 7 6 5 6 8 8 8 8 9 8 9 8 8 9 8 8 9 10 12 14 14 13 12 11 11 9 9 10 11 11 10 11 11 10 11 12 13 15 16 17
12 12 12 11 10 8 8 9 11 12 11 10 10 9 10 9 10 9 10 11 11 11 11 12 11 11 10 11 10 11 11 10 9 10 11 11 10 10 11 12 13 14 14
16 16 16 15 14 14 13 12 13 13 14 12 12 12 12 13 14 13 13 12 13 12 12 12 12 11 11 11 12 11 10 10 10 10 12 12 10 11 12 11 11 11 13
20 20 21 20 18 17 17 17 17 16 15 15 15 13 15 16 17 16 16 17 16 15 16 15 14 15 14 14 13 12 11 12 12 13 15 14 13 12 12 13 12 13 9
26 26 26 25 24 22 20 20 21 19 18 18 16 15 15 13 11 15 16 15 16 19 18 17 17 17 17 17 16 15 15 14 14 16 17 17 16 15 14 13 13 14 14
33 32 30 29 29 28 26 25 25 23 22 22 20 19 17 15 14 13 15 16 17 18 21 21 21 20 20 20 19 18 17 16 15 17 19 17 17 16 16 15 14 15 16
34 35 32 32 32 31 31 30 29 27 26 27 26 24 22 19 17 16 15 14 18 22 23 26 27 26 25 24 24 24 20 17 16 18 21 20 20 20 19 19 18 18 18
32 36 36 36 35 34 33 32 31 30 30 29 25 24 25 21 17 17 18 23 22 22 23 24 29 30 30 28 27 26 24 24 22 21 22 24 23 22 20 19 18 17 17
29 32 33 34 35 35 35 33 32 33 32 32 32 32 27 23 24 25 26 28 29 30 31 35 34 32 29 30 30 28 27 27 27 26 25 23 25 26 24 23 23 22 20
24 26 29 32 33 33 33 33 33 32 32 33 37 35 31 31 32 30 29 31 33 32 31 36 37 37 32 29 30 32 31 30 31 30 29 27 26 29 29 25 24 23 21
21 23 25 29 29 26 27 28 28 28 29 28 30 33 31 32 33 36 38 38 39 38 38 38 37 35 34 34 34 32 33 34 33 33 32 31 29 29 30 29 28 27 25
17 19 23 26 27 27 26 28 29 29 29 29 28 29 31 32 35 36 37 38 40 40 40 40 40 38 36 34 33 33 35 37 35 33 33 33 32 32 32 33 33 31 29
15 17 22 26 27 27 27 25 27 28 29 28 28 30 31 35 36 39 38 35 34 38 39 40 39 39 38 37 36 35 34 34 35 34 31 33 34 34 34 36 36 35 33
12 15 20 26 27 26 25 24 25 24 26 26 25 27 28 30 31 33 34 34 32 34 36 37 38 36 34 35 35 35 34 33 36 36 33 33 35 35 36 38 38 37 35
9 12 16 21 23 22 22 22 22 22 23 24 24 25 25 27 27 29 29 29 30 30 31 32 34 31 30 32 32 32 32 32 34 36 35 34 36 37 36 38 39 39 38
Wind_Direction
1 2 8 7 11 13 17 1 6 339 314 296 279 276 228 182 191 202 200 205 215 201 207 201 204 205 199 182 177 174 181 189 141 125 140 129 62 75 74 75 51 48 55
359 12 12 13 20 18 23 27 31 319 303 86 167 208 184 167 166 180 183 168 160 149 144 152 150 141 137 143 155 155 157 174 154 137 132 119 76 83 90 95 61 60 63
3 19 14 22 23 31 32 40 45 77 89 111 148 158 157 154 152 151 148 144 131 126 126 127 122 128 130 130 116 120 135 141 160 154 133 132 100 95 114 127 74 68 69
12 25 28 28 28 36 44 55 57 74 94 103 112 116 126 135 137 134 135 129 120 120 120 121 115 115 122 120 117 110 116 122 126 124 112 117 118 102 75 109 112 65 64
20 27 34 45 56 58 62 68 77 92 97 105 113 114 115 117 122 128 124 121 125 120 115 116 122 131 131 125 120 116 123 123 126 121 118 107 90 74 66 51 91 105 57
69 46 46 50 59 67 77 84 90 87 96 106 109 111 109 107 114 121 128 128 129 130 127 123 124 128 128 130 126 125 122 124 124 122 117 107 97 80 65 70 73 115 58
100 64 63 60 65 67 79 90 90 92 100 100 101 104 104 107 117 129 135 136 134 132 131 132 129 125 129 125 126 126 124 123 122 126 119 109 94 78 82 101 84 79 75
166 140 101 77 76 75 80 81 87 96 104 105 108 111 114 113 119 134 139 138 133 130 131 132 129 127 127 127 124 114 105 105 106 109 105 101 97 89 76 89 121 94 71
230 186 155 130 97 100 93 98 103 112 112 111 112 116 120 119 127 136 146 137 129 128 132 131 132 134 133 133 134 125 116 103 102 103 106 106 100 88 75 76 111 145 95
265 259 223 162 143 140 133 130 123 114 110 114 116 117 119 126 136 140 147 144 138 137 136 136 136 140 141 138 138 137 127 126 125 119 111 103 100 87 82 78 71 113 135
260 258 258 218 180 159 149 143 140 141 137 127 126 127 132 135 136 143 153 151 152 150 153 153 158 157 146 140 143 146 147 141 138 133 120 112 106 96 87 79 77 86 86
246 258 257 249 240 228 191 174 171 166 164 157 154 151 155 158 157 160 162 164 164 167 165 167 170 172 167 159 159 164 157 153 146 136 131 127 121 116 103 93 88 91 91
227 235 238 247 249 243 242 225 198 190 189 186 184 182 181 183 181 182 182 180 179 177 181 174 155 152 153 153 170 167 167 165 160 156 154 150 146 144 131 123 107 98 101
226 226 229 234 236 236 234 229 234 221 210 210 206 207 203 199 197 198 191 190 188 183 174 158 165 161 163 162 162 182 183 184 183 179 174 170 165 161 163 152 146 121 106
225 227 228 231 236 237 239 237 236 238 240 235 229 229 221 220 215 206 203 201 198 193 179 178 183 185 183 186 193 200 201 200 196 191 186 185 182 178 178 179 172 164 155
227 227 227 231 233 237 238 239 241 238 236 237 246 243 237 241 232 225 216 210 205 204 203 204 206 206 204 204 206 210 212 211 208 201 197 197 195 190 186 185 190 195 179
232 234 232 231 233 235 236 237 242 239 244 242 237 243 247 238 236 229 223 218 211 210 220 225 225 224 222 222 223 222 222 222 219 214 210 206 202 198 195 193 192 190 187
240 242 240 238 235 236 237 239 242 240 238 245 245 243 242 244 237 230 223 210 209 217 236 238 235 233 231 231 230 230 229 229 232 225 218 214 211 209 201 199 197 195 192
236 239 240 241 241 241 240 238 239 243 245 244 246 245 243 235 230 228 216 217 222 229 230 238 245 242 240 237 237 237 237 235 235 232 226 221 217 214 214 214 209 204 198
241 241 241 242 241 239 239 238 238 237 238 244 243 242 238 228 223 222 221 224 230 235 241 246 248 251 247 243 241 239 239 238 235 233 232 230 226 222 220 216 212 209 207
246 248 243 241 239 238 234 231 235 235 234 236 243 249 245 232 234 229 224 225 228 232 237 250 253 254 252 247 243 240 239 240 238 235 233 232 229 223 222 221 220 218 214
237 244 246 242 241 239 237 239 237 237 240 240 246 251 248 241 236 238 241 242 246 248 251 255 260 260 259 256 250 246 241 241 241 237 235 233 230 228 224 220 217 215 213
228 238 244 247 244 243 241 241 240 239 240 242 242 245 249 239 243 245 244 248 251 253 254 254 258 261 262 259 254 248 245 244 245 243 238 232 227 224 222 219 217 214 213
221 232 242 246 246 243 242 240 241 243 243 245 244 242 243 248 246 251 255 253 257 260 259 257 257 259 261 261 258 254 250 247 245 244 240 237 230 225 222 220 219 218 216
231 230 239 246 247 246 246 247 248 251 254 249 246 249 251 252 255 253 257 261 259 261 261 262 259 258 257 257 256 254 251 247 244 242 234 232 232 228 224 222 220 217 216
243 246 248 254 253 252 252 252 253 255 255 257 259 258 260 257 258 263 263 264 266 265 265 264 262 259 260 257 254 252 249 244 242 242 238 230 228 226 223 222 220 218 217